Weather History for Concord, NH

Change the Weather History Date:

Sunday, August 4, 2013

  Actual Average Record
Temperature  
Mean Temperature 64 °F 70 °F  
Max Temperature 77 °F 82 °F 97 °F (1944)
Min Temperature 51 °F 58 °F 41 °F (1964)
Degree Days  
Heating Degree Days 1 0  
Month to date heating degree days 1 0  
Since 1 June heating degree days 75 102  
Since 1 July heating degree days 3 17  
Cooling Degree Days 0 5  
Month to date cooling degree days 15 23  
Year to date cooling degree days 411 297  
Since 1 June cooling degree days 390 279  
Growing Degree Days 14 (Base 50)    
Moisture  
Dew Point 54 °F    
Average Humidity 70    
Maximum Humidity 93    
Minimum Humidity 46    
Precipitation  
Precipitation T in 0.11 in 1.86 in (1915)
Month to date precipitation 0.73 0.46  
Year to date precipitation 26.97 23.55  
Snow  
Snow 0.00 in 0.00 in 0.00 in (2002)
Month to date snowfall 0.0 0.0  
Since 1 June snowfall 0.0 0.0  
Since 1 July snowfall 0.0 0.0  
Snow Depth 0.00 in    
Sea Level Pressure  
Sea Level Pressure 29.83 in    
Wind  
Wind Speed 6 mph (NW)    
Max Wind Speed 17 mph    
Max Gust Speed 24 mph    
Visibility 10 miles    
Events      
T = Trace of Precipitation, MM = Missing Value Source: NWS Daily Summary

Daily Weather History Graph

Daily Weather History Graph

Search for Another Location

Airport:

Trip Planner

Search our weather history database for the weather conditions in past years. The results will help you decide how hot, cold, wet, or windy it might be!

Date:

Astronomy

Aug. 04, 2013 Rise Set
Actual Time 5:39 AM EDT 8:03 PM EDT
Civil Twilight 5:07 AM EDT 8:35 PM EDT
Nautical Twilight 4:27 AM EDT 9:15 PM EDT
Astronomical Twilight 3:43 AM EDT 9:59 PM EDT
Moon 3:37 AM EDT (8/4) 6:24 PM EDT (8/4)
Length of Visible Light 15h 27m
Length of Day
14h 23m
Waning Crescent, 5% of the Moon is Illuminated
Aug 4
Waning Crescent
Aug 6
New
Aug 14
First Quarter
Aug 20
Full
Aug 28
Last Quarter

Hourly Weather History & Observations

Time (EDT) Temp. Dew Point Humidity Pressure Visibility Wind Dir Wind Speed Gust Speed Precip Events Conditions
12:51 AM 57.0 °F 55.9 °F 96% 29.83 in 10.0 mi Calm Calm - N/A   Clear
1:51 AM 55.9 °F 54.0 °F 93% 29.81 in 10.0 mi Calm Calm - N/A   Clear
2:51 AM 55.0 °F 54.0 °F 96% 29.81 in 10.0 mi Calm Calm - N/A   Clear
3:51 AM 53.1 °F 52.0 °F 96% 29.81 in 10.0 mi Calm Calm - N/A   Clear
4:51 AM 53.1 °F 52.0 °F 96% 29.82 in 10.0 mi Calm Calm - N/A   Clear
5:51 AM 53.1 °F 52.0 °F 96% 29.83 in 10.0 mi Calm Calm - N/A   Clear
6:51 AM 57.0 °F 55.0 °F 93% 29.83 in 10.0 mi Calm Calm - N/A   Clear
7:51 AM 62.1 °F 55.9 °F 80% 29.84 in 10.0 mi Calm Calm - N/A   Clear
8:51 AM 68.0 °F 57.0 °F 68% 29.83 in 10.0 mi NW 6.9 mph - N/A   Clear
9:51 AM 71.1 °F 55.9 °F 59% 29.83 in 10.0 mi NNW 9.2 mph - N/A   Clear
10:51 AM 73.9 °F 55.9 °F 53% 29.83 in 10.0 mi Variable 5.8 mph - N/A   Clear
11:51 AM 75.0 °F 54.0 °F 48% 29.82 in 10.0 mi NW 9.2 mph - N/A   Scattered Clouds
12:51 PM 75.9 °F 54.0 °F 46% 29.81 in 10.0 mi WNW 8.1 mph - N/A   Mostly Cloudy
1:51 PM 73.0 °F 53.1 °F 49% 29.81 in 10.0 mi WNW 10.4 mph - N/A   Mostly Cloudy
2:51 PM 72.0 °F 53.1 °F 51% 29.81 in 10.0 mi NNW 16.1 mph 24.2 mph N/A   Overcast
3:51 PM 70.0 °F 55.0 °F 59% 29.80 in 10.0 mi NW 8.1 mph - 0.00 in   Partly Cloudy
4:51 PM 73.0 °F 55.9 °F 55% 29.81 in 10.0 mi NNW 10.4 mph - N/A   Clear
5:51 PM 71.1 °F 52.0 °F 51% 29.82 in 10.0 mi NNW 10.4 mph 18.4 mph N/A   Clear
6:51 PM 69.1 °F 52.0 °F 54% 29.83 in 10.0 mi NW 10.4 mph - N/A   Clear
7:51 PM 66.9 °F 54.0 °F 63% 29.85 in 10.0 mi WNW 6.9 mph - N/A   Clear
8:51 PM 64.0 °F 53.1 °F 67% 29.87 in 10.0 mi NW 5.8 mph - N/A   Clear
9:51 PM 61.0 °F 52.0 °F 72% 29.89 in 10.0 mi NW 5.8 mph - N/A   Clear
10:51 PM 60.1 °F 51.1 °F 72% 29.90 in 10.0 mi NW 8.1 mph - N/A   Clear
11:51 PM 59.0 °F 52.0 °F 78% 29.90 in 10.0 mi WNW 3.5 mph - N/A   Clear